Regional Weather Roundup
Issued by NWS

Home | Current Version | Previous Version | Text Only | Print | Product List | Glossary Off
Versions: 1 2 3 4 5 6 7 8 9 10 11 12 13 14 15 16 17 18 19 20 21 22 23 24 25 26 27 28 29 30 31 32 33 34 35 36 37 38 39 40 41 42 43 44 45 46 47 48 49 50

000
ASUS43 KMPX 240701
RWRMN
WEATHER ROUNDUP FOR MINNESOTA
NATIONAL WEATHER SERVICE TWIN CITIES/CHANHASSEN MN
200 AM CDT WED AUG 24 2016


NOTE: "FAIR" INDICATES FEW OR NO CLOUDS BELOW 12,000 FEET WITH NO
SIGNIFICANT WEATHER AND/OR OBSTRUCTIONS TO VISIBILITY. N/A MEANS
CURRENT SKY AND/OR WEATHER CONDITIONS ARE NOT AVAILABLE.

MNZ060>063-068>070-240800-
   Twin Cities Metro

CITY           SKY/WX    TMP DP  RH WIND       PRES   REMARKS
TWIN CITIES    LGT RAIN  68  66  93 SW3       29.82S FOG
ST PAUL        LGT RAIN  68  66  93 S7        29.81F
CRYSTAL        LGT RAIN  67  64  90 SE5       29.80F FOG
BLAINE         DRIZZLE   70  68  94 CALM      29.81F
LAKEVILLE      CLOUDY    64  64 100 SE3       29.82S
EDEN PRAIRIE   CLOUDY    68  65  90 SE5       29.80F
LAKEVILLE      CLOUDY    64  64 100 SE3       29.82S
SOUTH ST PAUL  CLOUDY    68  67  98 S7        29.80F
LAKE ELMO      RAIN      68  66  94 SE7       29.81F
$$
MNZ001>005-007-008-013>017-022>024-027-028-240800-
   Northwest Minnesota

CITY           SKY/WX    TMP DP  RH WIND       PRES   REMARKS
BEMIDJI        CLOUDY    70  68  93 S8        29.79F
HALLOCK        CLEAR     61  57  88 CALM      29.76S
ROSEAU         PTCLDY    72  66  83 W8        29.73S
WARROAD        CLOUDY    72  68  88 W6        29.73S
THIEF RVR FALL CLOUDY    67  57  70 W10       29.80R
CROOKSTON      CLOUDY    66  55  68 NW5       29.80S
FOSSTON        CLOUDY    68  63  83 W7        29.80S
DETROIT LAKES  CLOUDY    70  64  83 W7        29.82F
MOORHEAD       CLOUDY    70  63  78 N6        29.82S
PARK RAPIDS    PTCLDY    67  65  93 S5        29.80F
MAHNOMEN       CLOUDY    69  67  93 W7        29.81R
$$
MNZ006-009>011-018-025>026-240800-
   North Central Minnesota

CITY           SKY/WX    TMP DP  RH WIND       PRES   REMARKS
BAUDETTE       CLOUDY    73  65  75 SW9       29.74S
FLAG ISLAND    CLOUDY    73  66  78 W5        29.70R
INTL FALLS     MOCLDY    71  68  90 VRB5      29.77S
WASKISH        CLOUDY    72  70  94 SW6       29.76F
BIG FORK       PTCLDY    70  64  83 S7        29.80S
LONGVILLE      CLOUDY    68  64  88 S3        29.81F
GRAND RAPIDS   CLEAR     65  63  93 SE3       29.83F
CRANE LAKE     PTCLDY    70  64  83 S5        29.82F
ORR            CLOUDY    68  63  83 S3        29.80S
COOK           PTCLDY    68  63  83 S3        29.84R
WALKER         FAIR      67  65  93 S3        29.80F
$$
MNZ012-019>021-037-240800-
   Northeast Minnesota

CITY           SKY/WX    TMP DP  RH WIND       PRES   REMARKS
DULUTH         CLOUDY    68  64  87 S8        29.84F
ELY            CLOUDY    66  63  88 S3        29.84S
HIBBING        PTCLDY    64  62  93 CALM      29.83S
EVELETH        PTCLDY    65  62  88 CALM      29.85S
DULUTH HARBOR  CLOUDY    70  66  88 S6        29.82F
TWO HARBORS    PTCLDY    66  61  82 CALM      29.83S
SILVER BAY     MOCLDY    63  61  94 CALM      29.84S
GRAND MARAIS     N/A     66  64  93 CALM      29.84F
G MARAIS ARPRT CLOUDY    63  59  88 S3        29.90S
$$
MNZ029>031-032-039>041-046>048-054>057-064-240800-
   West Central Minnesota

CITY           SKY/WX    TMP DP  RH WIND       PRES   REMARKS
FERGUS FALLS   CLOUDY    68  68 100 SW5       29.82F
WHEATON        MOCLDY    70  68  94 W7        29.81F
MORRIS         CLOUDY    66  66 100 SE5       29.79F
ALEXANDRIA     CLEAR     66  64  93 SW3       29.82F
ELBOW LAKE     CLOUDY    66  65  99 S7        29.81F
WADENA         MOCLDY    64  64 100 CALM      29.80F FOG
GLENWOOD       PTCLDY    64  63  94 CALM      29.82F
APPLETON       CLOUDY    70  66  88 CALM      29.80S
BENSON         CLOUDY    66  63  88 CALM      29.81S
ORTONVILLE     CLEAR     68  64  88 W7        29.80S
MADISON        CLOUDY    68  66  94 S5        29.81R
WILLMAR        MOCLDY    68  66  94 CALM      29.82F
$$
MNZ033>034-036-042>043-049>051-058-059-240800-
   Central Minnesota

CITY           SKY/WX    TMP DP  RH WIND       PRES   REMARKS
ST CLOUD       CLOUDY    66  66 100 S8        29.81F
SAUK CENTRE    CLOUDY    66  65  96 S5        29.82S
PAYNESVILLE    CLOUDY    67  67 100 SE3       29.81F
AITKIN         CLOUDY    70  63  78 CALM      29.80F
PINE RIVER     CLOUDY    66  64  94 CALM      29.84F
BRAINERD       CLEAR     64  63  96 S3        29.80F
STAPLES        CLOUDY    66  64  94 S3        29.81S
LONG PRAIRIE   CLOUDY    64  64 100 SE3       29.82F
LITTLE FALLS   CLOUDY    66  63  88 S5        29.82S
LITCHFIELD     CLOUDY    68  66  94 CALM      29.82F
BUFFALO        DRIZZLE   66  64  91 CALM      29.82F
MAPLE LAKE     DRIZZLE   67  66  97 CALM      29.82F
HUTCHINSON     CLOUDY    67  67 100 CALM      29.82F
$$
MNZ037-044-045-052-053-240800-
   East Central Minnesota

CITY           SKY/WX    TMP DP  RH WIND       PRES   REMARKS
PRINCETON      CLOUDY    68  66  94 S6        29.81F
MORA           CLOUDY    66  63  88 S7        29.83F
CAMBRIDGE      DRIZZLE   70  61  73 S3        29.80F
RUSH CITY      LGT RAIN  67  64  93 S3        29.83F
MOOSE LAKE     CLOUDY    66  63  88 S3        29.81S
HINCKLEY       CLOUDY    68  66  94 SE7       29.82F
CLOQUET        PTCLDY    66  63  88 SE3       29.83F
MCGREGOR       MOCLDY    64  61  88 S3        29.82F
$$
MNZ071>073-080-081-089-090-097-098-240800-
   Southwest Minnesota

CITY           SKY/WX    TMP DP  RH WIND       PRES   REMARKS
MONTEVIDEO     CLOUDY    66  66 100 CALM      29.83S
GRANITE FALLS  CLOUDY    68  67  97 CALM      29.83S
CANBY          CLOUDY    68  67  95 S3        29.84R FOG
MARSHALL       CLOUDY    67  66  97 N3        29.82S
REDWOOD FALLS  LGT RAIN  67  65  93 SE5       29.80F
OLIVIA         CLOUDY    68  64  88 CALM      29.81S
PIPESTONE      CLOUDY    72  70  94 W5        29.84S
WINDOM         CLOUDY    68  66  94 CALM      29.82S FOG
WORTHINGTON    CLOUDY    70  68  93 SW7       29.82F
JACKSON        CLOUDY    70  68  94 SW3       29.83S FOG
TRACY          CLOUDY    68  67  98 CALM      29.82S
SLAYTON        MOCLDY    70  70 100 W3        29.84S
$$
MNZ065>067-074>077-082>085-091>093-240800-
   South Central Minnesota

CITY           SKY/WX    TMP DP  RH WIND       PRES   REMARKS
MANKATO        CLOUDY    66  63  88 S5        29.81F
NEW ULM          N/A     66  66 100 E6        29.80F
ST JAMES       CLOUDY    63  63 100 CALM      29.82F
FAIRMONT         N/A    N/A N/A N/A MISG        N/A
GLENCOE        CLOUDY    67  68 100 CALM      29.81F
FARIBAULT      CLOUDY    66  66 100 N3        29.83S
OWATONNA       CLOUDY    70  64  83 S5        29.82S
WASECA         CLOUDY    64  63  94 S5        29.83F
ALBERT LEA     MOCLDY    68  66  94 S8        29.83F
$$
MNZ078>079-086>088-094>096-240800-
   Southeast Minnesota

CITY           SKY/WX    TMP DP  RH WIND       PRES   REMARKS
ROCHESTER      CLOUDY    66  65  96 SE12      29.86S
RED WING       LGT RAIN  70  66  88 S5        29.82F
STANTON        CLOUDY    68  64  88 CALM      29.81F
DODGE CENTER   CLOUDY    66  64  94 S8        29.84S
WINONA         LGT RAIN  70  66  88 S9        29.85F
AUSTIN         CLOUDY    66  63  88 S5        29.84F
PRESTON        CLOUDY    65  63  92 SE13      29.89S
$$
ABBREVIATIONS USED IN REMARKS
   TC - TEMPERATURES IN CELSIUS
  WCI - WIND CHILL INDEX
   HX - HEAT INDEX
  VSB - VISIBILITY
$$



USA.gov is the U.S. government's official web portal to all federal, state and local government web resources and services.